TimeEST,TemperatureF,Dew PointF,Humidity,Sea Level PressureIn,VisibilityMPH,Wind Direction,Wind SpeedMPH,Gust SpeedMPH,PrecipitationIn,Events,Conditions,WindDirDegrees,DateUTC
12:56 AM,41.0,19.9,43,30.30,10.0,WNW,8.1,-,N/A,,Clear,300,2013-01-23 05:56:00
1:56 AM,39.0,19.9,46,30.30,10.0,WNW,6.9,-,N/A,,Clear,300,2013-01-23 06:56:00
2:56 AM,37.9,19.9,48,30.31,10.0,NW,4.6,-,N/A,,Clear,320,2013-01-23 07:56:00
3:56 AM,37.9,19.0,47,30.31,10.0,NW,5.8,-,N/A,,Clear,320,2013-01-23 08:56:00
4:56 AM,37.0,19.0,48,30.32,10.0,NW,6.9,-,N/A,,Clear,320,2013-01-23 09:56:00
5:56 AM,36.0,19.9,52,30.34,10.0,NW,4.6,-,N/A,,Clear,310,2013-01-23 10:56:00
6:56 AM,36.0,19.9,52,30.35,10.0,NNW,3.5,-,N/A,,Clear,330,2013-01-23 11:56:00
7:56 AM,37.0,21.0,52,30.38,10.0,NNW,6.9,-,N/A,,Clear,330,2013-01-23 12:56:00
8:56 AM,41.0,18.0,40,30.39,10.0,NNW,8.1,-,N/A,,Clear,340,2013-01-23 13:56:00
9:56 AM,43.0,15.1,32,30.40,10.0,North,9.2,-,N/A,,Clear,350,2013-01-23 14:56:00
10:56 AM,46.9,17.1,30,30.40,10.0,NNW,5.8,-,N/A,,Clear,340,2013-01-23 15:56:00
11:56 AM,50.0,19.0,29,30.37,10.0,West,10.4,-,N/A,,Partly Cloudy,280,2013-01-23 16:56:00
12:56 PM,54.0,19.9,26,30.33,10.0,West,12.7,-,N/A,,Clear,270,2013-01-23 17:56:00
1:56 PM,55.9,24.1,29,30.30,10.0,WNW,10.4,-,N/A,,Clear,290,2013-01-23 18:56:00
2:56 PM,55.9,24.1,29,30.27,10.0,Calm,Calm,-,N/A,,Clear,0,2013-01-23 19:56:00
3:56 PM,57.0,26.1,30,30.26,10.0,West,12.7,-,N/A,,Clear,260,2013-01-23 20:56:00
4:56 PM,55.9,26.1,32,30.26,10.0,West,6.9,-,N/A,,Clear,280,2013-01-23 21:56:00
5:56 PM,51.1,33.1,50,30.25,8.0,WSW,3.5,-,N/A,,Clear,240,2013-01-23 22:56:00
6:56 PM,46.0,30.9,56,30.27,9.0,Calm,Calm,-,N/A,,Clear,0,2013-01-23 23:56:00
7:56 PM,45.0,32.0,60,30.26,10.0,WSW,4.6,-,N/A,,Clear,240,2013-01-24 00:56:00
8:56 PM,41.0,30.9,67,30.25,10.0,WSW,4.6,-,N/A,,Clear,240,2013-01-24 01:56:00
9:56 PM,42.1,32.0,67,30.25,10.0,WSW,6.9,-,N/A,,Clear,250,2013-01-24 02:56:00
10:56 PM,43.0,33.1,68,30.23,10.0,SW,6.9,-,N/A,,Clear,230,2013-01-24 03:56:00
11:56 PM,44.1,34.0,68,30.22,10.0,WSW,6.9,-,N/A,,Clear,240,2013-01-24 04:56:00